• Join FlightAware (Why Join?)
  • Login
  • US Flag 
04:45PM EDT


 

Airport Tracker/Info


-or-


 

Live Flight TrackerFlight Track Log ✈ EJA929 ✈ 01-Sep-2013 ✈ KMMH - KBFI

Flight Track Log - Related Links

Times and Time Zones

All times are in EDT time to prevent confusion due to time zone crossing. See the EJA929 flight status page for this flight to view local times or setup timezone preferences in your user account.

Time Position Orientation Groundspeed Altitude Reporting Facility
EDT Latitude Longitude Course Direction KTS MPH feet Rate Location/Type
03:29PM 37.7781 -118.6328 66° East 320 368 17,500  Level Oakland Center
03:30PM 37.8381 -118.5508 47° Northeast 333 383 19,600 2,040 Climbing Oakland Center
03:31PM 37.9300 -118.5681 352° North 331 381 21,700 1,560 Climbing Oakland Center
03:32PM 37.6484 -118.4995 345° North  Level FlightAware Approximate
03:32PM 38.0267 -118.6111 341° North 360 414 22,800  Level Oakland Center
03:33PM 37.7639 -118.5674 336° Northwest  Level FlightAware Approximate
03:33PM 38.1453 -118.6647 340° North 408 470 23,700  Level Oakland Center
03:34PM 38.2622 -118.7183 340° North 440 506 24,300 660 Climbing Oakland Center
03:35PM 38.3844 -118.7758 340° North 462 532 25,100 720 Climbing Oakland Center
03:36PM 38.5100 -118.8342 340° North 477 549 25,800 840 Climbing Oakland Center
03:37PM 38.6372 -118.8931 340° North 484 557 26,900 1,020 Climbing Oakland Center
03:38PM 38.7625 -118.9528 340° North 480 552 28,000 1,020 Climbing Oakland Center
03:39PM 38.8903 -119.0117 340° North 484 557 29,100 1,140 Climbing Oakland Center
03:40PM 39.0464 -119.0844 340° North 492 566 30,400 1,260 Climbing Oakland Center
03:41PM 39.1781 -119.1464 340° North 498 573 31,700 1,320 Climbing Oakland Center
03:42PM 39.3086 -119.2075 340° North 494 568 33,200 1,320 Climbing Oakland Center
03:43PM 39.4419 -119.2708 340° North 501 577 34,500 1,440 Climbing Oakland Center
03:44PM 39.5739 -119.3333 340° North 502 578 36,200 1,380 Climbing Oakland Center
03:45PM 39.7081 -119.3969 340° North 507 583 37,400 1,080 Climbing Oakland Center
03:46PM 39.8453 -119.4628 340° North 520 598 38,500 1,020 Climbing Oakland Center
03:47PM 39.9839 -119.5292 340° North 528 608 39,500 780 Climbing Oakland Center
03:48PM 40.1244 -119.5969 340° North 535 616 40,100 240 Climbing Oakland Center
03:49PM 40.2669 -119.6664 340° North 543 625 40,100  Level Oakland Center
03:50PM 40.4125 -119.7364 340° North 554 638 40,100  Level Oakland Center
03:51PM 40.5767 -119.8186 339° North 552 635 40,100  Level Oakland Center
03:52PM 40.7200 -119.8900 339° North 553 636 40,100 -60 Level Oakland Center
03:53PM 40.8639 -119.9597 340° North 553 636 40,000  Descending Oakland Center
03:54PM 40.9517 -120.0042 339° North 553 636 40,100 60 Climbing Seattle Center
03:55PM 41.0964 -120.0750 340° North 556 640 40,100  Level Seattle Center
03:56PM 41.2394 -120.1489 339° North 554 638 40,100  Level Seattle Center
03:57PM 41.3847 -120.2208 340° North 557 641 40,100  Level Seattle Center
03:58PM 41.5292 -120.2939 339° North 559 643 40,100 -60 Level Seattle Center
03:59PM 41.6739 -120.3672 339° North 558 642 40,000  Descending Seattle Center
04:00PM 41.8497 -120.4575 339° North 566 651 40,100  Climbing Seattle Center
04:01PM 41.9950 -120.5308 339° North 563 648 40,000  Descending Seattle Center
04:02PM 42.1397 -120.6053 339° North 560 644 40,100  Climbing Seattle Center
04:03PM 42.2822 -120.6794 339° North 554 638 40,100  Level Seattle Center
04:04PM 42.4250 -120.7539 339° North 554 638 40,100 -60 Level Seattle Center
04:05PM 42.5700 -120.8297 339° North 561 646 40,000  Descending Seattle Center
04:06PM 42.7153 -120.9069 339° North 562 647 40,100  Climbing Seattle Center
04:07PM 42.8597 -120.9811 339° North 559 643 40,100  Level Seattle Center
04:08PM 43.0042 -121.0592 338° Northwest 562 647 40,100 -60 Level Seattle Center
04:09PM 43.1800 -121.1550 338° Northwest 568 654 40,000  Descending Seattle Center
04:10PM 43.3236 -121.2297 339° North 557 641 40,100  Climbing Seattle Center
04:11PM 43.4681 -121.3069 339° North 558 642 40,100  Level Seattle Center
04:12PM 43.6139 -121.3903 338° Northwest 569 655 40,100 -60 Level Seattle Center
04:13PM 43.7586 -121.4675 339° North 562 647 40,000  Descending Seattle Center
04:14PM 43.8939 -121.5378 339° North 565 650 40,100  Climbing Seattle Center
04:15PM 44.0686 -121.6353 338° Northwest 564 649 40,100 -60 Level Seattle Center
04:16PM 44.2158 -121.7175 338° Northwest 568 654 40,000  Descending Seattle Center
04:17PM 44.3625 -121.7994 338° Northwest 567 652 40,100  Climbing Seattle Center
04:18PM 44.5100 -121.8797 339° North 568 654 40,100  Level Seattle Center
04:19PM 44.6511 -121.9583 338° Northwest 570 656 40,100  Level Seattle Center
04:20PM 44.7972 -122.0422 338° Northwest 569 655 40,100 -60 Level Seattle Center
04:21PM 44.9517 -122.1322 338° Northwest 562 647 40,000 -60 Descending Seattle Center
04:22PM 45.0989 -122.2153 338° Northwest 573 659 40,000  Level Seattle Center
04:23PM 45.2486 -122.3017 338° Northwest 582 670 40,000 -480 Level Seattle Center
04:24PM 45.3956 -122.3878 338° Northwest 580 667 39,100 -1,200 Descending Seattle Center
04:25PM 45.5394 -122.4697 338° Northwest 567 652 37,600 -1,500 Descending Seattle Center
04:26PM 45.6878 -122.5564 338° Northwest 576 663 36,100 -1,680 Descending Seattle Center
04:27PM 45.8803 -122.6236 346° North 604 695 34,300 -1,680 Descending Seattle Center
04:28PM 46.0431 -122.6653 350° North 598 688 32,700 -1,080 Descending Seattle Center
04:29PM 46.2014 -122.7044 350° North 582 670 32,200 -1,920 Descending Seattle Center
04:30PM 46.3619 -122.7483 349° North 556 640 28,800 -2,940 Descending Seattle Center
04:31PM 46.5047 -122.7856 350° North 530 610 26,300 -2,580 Descending Seattle Center
04:33PM 46.6431 -122.8192 351° North 512 589 23,600 -2,820 Descending Seattle Center
04:33PM 46.7275 -122.8400 350° North 496 571 21,700 -2,700 Descending Seattle Center
04:34PM 46.8886 -122.8803 350° North 468 539 18,600 -2,340 Descending Seattle Center
04:35PM 47.0036 -122.8447 12° North 412 474 16,500 -2,160 Descending Seattle Center
04:36PM 47.0931 -122.7414 38° Northeast 365 420 14,300 -1,860 Descending Seattle Center
04:37PM 47.1656 -122.6503 40° Northeast 333 383 12,800 -1,500 Descending Seattle Center
04:38PM 47.2331 -122.5650 41° Northeast 310 357 11,300 -1,500 Descending Seattle Center
04:39PM 47.2978 -122.4872 39° Northeast 301 346 9,800 -1,440 Descending Seattle Center
04:41PM 47.3961 -122.4475 15° North 304 350 8,100 -1,080 Descending Seattle Center
04:42PM 47.4708 -122.4378 North 262 302 7,400 -1,140 Descending Seattle Center
04:42PM 47.5275 -122.4825 332° Northwest 259 298 6,100 -1,200 Descending Seattle Center
04:44PM 47.5800 -122.5228 333° Northwest 205 236 5,300 -1,140 Descending Seattle Center
04:45PM 47.6331 -122.5394 348° North 196 226 3,800 -1,140 Descending Seattle Center
04:46PM 47.6844 -122.5147 18° North 201 231 3,100 -360 Descending Seattle Center
04:47PM 47.6881 -122.4403 86° East 207 238 3,100 -300 Level Seattle Center
04:48PM 47.6450 -122.4014 149° Southeast 180 207 2,500 -720 Descending Seattle Center
04:49PM 47.5994 -122.3619 150° Southeast 136 157 1,500 -780 Descending Seattle Center
04:50PM 47.5689 -122.3367 151° Southeast 127 146 800 -720 Descending Seattle Center
04:51PM 47.5489 -122.3200 151° Southeast 135 155 300 -660 Descending Seattle Center